Date String (YYYY-MM-DD hh:mm:ss) UTC,Instrument flags,Ambient pressure (hPa),Sample flow (lpm),Bypass flow (lpm),Sample temperature (°C),Ambient temperature (°C),ASC tube jacket temperature (°C),LED temperature (°C),Box temperature (°C),Sample RH (%),Span deviation,Mass concentration (μg/m³),Mass concentration (μg/m³),Mass concentration (μg/m³)
DateTimeUTC,F1_M11,P_M11,Q1_M11,Q2_M11,T1_M11,T2_M11,T3_M11,T4_M11,T5_M11,U1_M11,ZSPAN_M11,X0_M11,X2_M11,X1_M11
2022-10-23 04:00:00,,0808.3,4.99,0.00,30.2,26.9,00.0,38.9,31.9,08.2,0000.0,0005.47,0002.29,0001.50
2022-10-23 04:01:00,,0808.3,5.02,0.00,30.1,26.3,00.0,38.8,31.8,08.2,0000.0,0007.85,0002.29,0001.51
2022-10-23 04:02:00,,0808.3,4.99,0.00,30.0,26.4,00.0,38.8,31.4,08.2,0000.0,0007.96,0002.32,0001.51
2022-10-23 04:03:00,,0808.3,5.00,0.00,29.9,26.7,00.0,38.8,31.4,08.3,0000.0,0007.97,0002.30,0001.51
2022-10-23 04:04:00,,0808.3,5.01,0.00,29.8,27.0,00.0,38.8,31.5,08.3,0000.0,0007.94,0002.26,0001.50
2022-10-23 04:05:00,,0808.3,4.99,0.00,29.8,27.3,00.0,38.7,31.5,08.4,0000.0,0007.82,0002.17,0001.49
2022-10-23 04:06:00,,0808.2,4.99,0.00,29.8,27.6,00.0,38.7,31.5,08.3,0000.0,0007.81,0002.13,0001.49
2022-10-23 04:07:00,,0808.2,5.02,0.00,29.8,27.7,00.0,38.7,31.5,08.3,0000.0,0007.81,0002.15,0001.48
2022-10-23 04:08:00,,0808.2,5.00,0.00,29.8,27.8,00.0,38.7,31.6,08.5,0000.0,0008.19,0002.18,0001.47
2022-10-23 04:09:00,,0808.1,5.00,0.00,29.8,27.9,00.0,38.7,31.6,08.4,0000.0,0008.55,0002.27,0001.46
2022-10-23 04:10:00,,0808.1,5.00,0.00,29.8,28.0,00.0,38.7,31.6,08.3,0000.0,0008.59,0002.29,0001.46
2022-10-23 04:11:00,,0808.1,5.00,0.00,29.8,28.1,00.0,38.7,31.6,08.3,0000.0,0008.36,0002.31,0001.47
2022-10-23 04:12:00,,0808.1,5.00,0.00,29.8,28.2,00.0,38.7,31.6,08.3,0000.0,0006.66,0002.36,0001.46
2022-10-23 04:13:00,,0808.1,4.98,0.00,29.8,28.2,00.0,38.7,31.6,08.3,0000.0,0006.30,0002.32,0001.47
2022-10-23 04:14:00,,0808.1,5.00,0.00,29.8,28.2,00.0,38.7,31.7,08.3,0000.0,0006.37,0002.33,0001.47
2022-10-23 04:15:00,,0808.1,5.01,0.00,29.8,28.3,00.0,38.7,31.7,08.2,0000.0,0006.70,0002.36,0001.47
2022-10-23 04:16:00,,0808.0,5.00,0.00,29.8,28.3,00.0,38.7,31.7,08.2,0000.0,0006.87,0002.42,0001.48
2022-10-23 04:17:00,,0808.0,5.00,0.00,29.8,28.3,00.0,38.6,31.7,08.1,0000.0,0006.66,0002.39,0001.48
2022-10-23 04:18:00,,0808.1,5.00,0.00,29.8,28.3,00.0,38.7,31.7,08.3,0000.0,0006.61,0002.36,0001.48
2022-10-23 04:19:00,,0808.0,5.00,0.00,29.8,28.4,00.0,38.7,31.7,08.3,0000.0,0006.02,0002.34,0001.50
2022-10-23 04:20:00,,0808.0,5.00,0.00,29.8,28.4,00.0,38.7,31.7,08.3,0000.0,0006.24,0002.32,0001.52
2022-10-23 04:21:00,,0807.9,4.99,0.00,29.8,28.4,00.0,38.7,31.7,08.3,0000.0,0006.35,0002.35,0001.52
2022-10-23 04:22:00,,0807.9,4.98,0.00,29.9,28.4,00.0,38.7,31.7,08.3,0000.0,0006.85,0002.33,0001.53
2022-10-23 04:23:00,,0807.8,5.00,0.00,29.9,28.4,00.0,38.7,31.7,08.3,0000.0,0006.70,0002.31,0001.54
2022-10-23 04:24:00,,0807.8,5.00,0.00,29.9,28.4,00.0,38.7,31.7,08.3,0000.0,0006.60,0002.33,0001.55
2022-10-23 04:25:00,,0807.8,5.00,0.00,29.9,28.4,00.0,38.7,31.7,08.3,0000.0,0007.06,0002.34,0001.57
2022-10-23 04:26:00,,0807.8,5.00,0.00,29.9,28.4,00.0,38.7,31.8,08.3,0000.0,0007.80,0002.39,0001.58
2022-10-23 04:27:00,,0807.7,5.00,0.00,29.9,28.4,00.0,38.7,31.8,08.3,0000.0,0007.84,0002.38,0001.57
2022-10-23 04:28:00,,0807.7,5.00,0.00,29.9,28.4,00.0,38.7,31.7,08.2,0000.0,0008.18,0002.44,0001.58
2022-10-23 04:29:00,,0807.7,5.00,0.00,29.9,28.4,00.0,38.7,31.7,08.3,0000.0,0008.56,0002.48,0001.60
2022-10-23 04:30:00,,0807.7,5.00,0.00,29.9,28.4,00.0,38.7,31.8,08.2,0000.0,0008.79,0002.47,0001.60
2022-10-23 04:31:00,,0807.7,5.02,0.00,29.9,28.4,00.0,38.8,31.8,08.2,0000.0,0009.19,0002.49,0001.59
2022-10-23 04:32:00,,0807.7,5.00,0.00,29.9,28.4,00.0,38.8,31.8,08.2,0000.0,0009.43,0002.49,0001.59
2022-10-23 04:33:00,,0807.9,5.00,0.00,29.9,28.4,00.0,38.8,31.8,08.1,0000.0,0009.25,0002.46,0001.58
2022-10-23 04:34:00,,0807.8,5.01,0.00,30.0,28.5,00.0,38.8,31.8,08.1,0000.0,0008.93,0002.41,0001.57
2022-10-23 04:35:00,,0807.8,4.98,0.00,30.0,28.5,00.0,38.8,31.8,08.1,0000.0,0009.02,0002.41,0001.55
2022-10-23 04:36:00,,0807.8,5.02,0.00,30.0,28.5,00.0,38.8,31.8,08.1,0000.0,0008.98,0002.46,0001.54
2022-10-23 04:37:00,,0807.8,5.00,0.00,30.0,28.5,00.0,38.8,31.8,08.0,0000.0,0008.23,0002.46,0001.53
2022-10-23 04:38:00,,0807.8,5.00,0.00,30.0,28.5,00.0,38.8,31.9,08.1,0000.0,0008.24,0002.49,0001.54
2022-10-23 04:39:00,,0807.8,5.00,0.00,30.0,28.5,00.0,38.8,31.9,08.1,0000.0,0008.15,0002.49,0001.54
2022-10-23 04:40:00,,0807.9,5.00,0.00,30.0,28.5,00.0,38.8,31.9,08.1,0000.0,0007.90,0002.45,0001.52
2022-10-23 04:41:00,,0808.0,4.99,0.00,30.0,28.6,00.0,38.8,31.9,08.1,0000.0,0007.90,0002.40,0001.51
2022-10-23 04:42:00,,0808.0,5.00,0.00,30.0,28.6,00.0,38.8,31.9,08.3,0000.0,0006.95,0002.38,0001.52
2022-10-23 04:43:00,,0808.0,4.99,0.00,30.0,28.6,00.0,38.8,31.9,09.1,0000.0,0006.91,0002.35,0001.53
2022-10-23 04:44:00,,0808.0,5.00,0.00,30.0,28.6,00.0,38.8,31.9,08.9,0000.0,0006.96,0002.42,0001.55
2022-10-23 04:45:00,,0807.8,5.02,0.00,30.0,28.6,00.0,38.9,31.9,09.0,0000.0,0007.17,0002.52,0001.57
2022-10-23 04:46:00,,0807.8,5.00,0.00,30.0,28.6,00.0,38.9,31.9,08.8,0000.0,0007.15,0002.52,0001.58
2022-10-23 04:47:00,,0807.8,5.00,0.00,30.1,28.6,00.0,38.9,31.9,08.7,0000.0,0007.65,0002.52,0001.59
2022-10-23 04:48:00,,0807.9,5.01,0.00,30.1,28.6,00.0,38.9,31.9,08.6,0000.0,0008.03,0002.51,0001.60
2022-10-23 04:49:00,,0807.7,5.00,0.00,30.1,28.7,00.0,38.9,31.9,08.2,0000.0,0008.07,0002.45,0001.59
2022-10-23 04:50:00,,0807.7,4.97,0.00,30.1,28.7,00.0,38.9,31.9,08.1,0000.0,0007.92,0002.38,0001.60
2022-10-23 04:51:00,,0807.7,5.00,0.00,30.1,28.7,00.0,38.9,32.0,08.1,0000.0,0008.55,0002.38,0001.60
2022-10-23 04:52:00,,0808.1,5.02,0.00,30.1,28.7,00.0,38.9,32.0,08.2,0000.0,0009.33,0002.43,0001.61
2022-10-23 04:53:00,,0807.9,5.00,0.00,30.1,28.7,00.0,38.9,32.0,08.2,0000.0,0009.55,0002.46,0001.61
2022-10-23 04:54:00,,0807.8,5.01,0.00,30.1,28.7,00.0,38.9,32.0,08.3,0000.0,0009.57,0002.44,0001.61
2022-10-23 04:55:00,,0807.8,4.98,0.00,30.1,28.7,00.0,38.9,32.0,08.4,0000.0,0009.74,0002.47,0001.60
2022-10-23 04:56:00,,0807.8,5.01,0.00,30.1,28.6,00.0,38.9,32.0,08.5,0000.0,0009.93,0002.45,0001.60
2022-10-23 04:57:00,,0807.9,5.01,0.00,30.1,28.6,00.0,38.9,32.0,08.6,0000.0,0009.92,0002.43,0001.60
2022-10-23 04:58:00,,0808.0,5.00,0.00,30.1,28.7,00.0,39.0,32.0,08.6,0000.0,0010.46,0002.41,0001.61
2022-10-23 04:59:00,,0807.9,5.01,0.00,30.1,28.7,00.0,39.0,32.0,08.5,0000.0,0010.19,0002.48,0001.63
